Погода в Виктория-Фолс

Зимбабве     17°55′49″S   25°49′59″E
темп.,
°C
ветер,
м/с
пор.,
м/с
влажн.,
%
обл.,
%
осадки,
мм/ч
давл.,
гПа
погр.,
м
6 марта, сб
сб623:00+18ююз017014 0.0 101323
02:00+17ююв12737 0.0 101323
05:00+15ююв22812 0.0 101326
08:00+19юв25701 0.0 1015227
11:00+25вюв35480 0.0 1014828
14:00+27вюв45420 0.0 10111261
17:00+26вюв26550 0.0 10101544
20:00+19вюв11750 0.0 101223
7 марта, вс
вс723:00+18ююз11790 0.0 101423
02:00+16ююв238016 0.0 101480
05:00+15юв238585 0.0 101462
08:00+19в247843 0.0 1015275
11:00+26всв34550 0.0 10141120
14:00+28в46440 0.0 10101723
17:00+26вюв36570 0.0 10081408
20:00+19с11800 0.0 101123
8 марта, пн
пн823:00+18зсз11840 0.0 101323
02:00+18зсз11840 0.0 101223
05:00+16вюв11880 0.0 101223
08:00+21вюв11750 0.0 1013155
11:00+28всв23500 0.0 10121044
14:00+30вюв24340 0.0 10092305
17:00+27вюв355369 0.0 10071030
20:00+20ссв126952 0.0 101023
9 марта, вт
вт923:00+19ссв116475 0.0 101223
02:00+17сз006938 0.0 101223
05:00+16сз11740 0.0 101223
08:00+20зсз11680 0.0 1013130
11:00+28ссв22480 0.0 1012787
14:00+32в12390 0.0 10102285
17:00+29вюв135159 0.0 10082166
20:00+21в237431 0.0 101171
10 марта, ср
ср1023:00+19ююз12830 0.0 101226
02:00+18ссз11850 0.0 101223
05:00+17ссз11890 0.0 101223
08:00+21зюз11710 0.0 1014141
11:00+30ссз11490 0.0 1013859
14:00+33св12380 0.0 10102331
17:00+29в125480 0.0 10081338
20:00+21юз227442 0.1 101139